Change the Weather History Date:

Wednesday, June 12, 2013

  Actual Average Record
Temperature  
Mean Temperature 59 °F 63 °F  
Max Temperature 64 °F 73 °F 93 °F (2002)
Min Temperature 53 °F 53 °F 42 °F (1965)
Degree Days  
Heating Degree Days 6 3  
Month to date heating degree days 24 48  
Since 1 June heating degree days 24 48  
Since 1 July heating degree days 3963 4235  
Cooling Degree Days 0 1  
Month to date cooling degree days 14 12  
Year to date cooling degree days 29 29  
Since 1 June cooling degree days 14 12  
Growing Degree Days 9 (Base 50)    
Moisture  
Dew Point 49 °F    
Average Humidity 75    
Maximum Humidity 93    
Minimum Humidity 56    
Precipitation  
Precipitation 0.20 in 0.07 in 0.50 in (1982)
Month to date precipitation 0.20 0.87  
Year to date precipitation 13.35 18.29  
Snow  
Snow 0.00 in - - ()
Month to date snowfall 0.0  
Since 1 June snowfall 0.0  
Snow Depth 0.00 in    
Sea Level Pressure  
Sea Level Pressure 30.17 in    
Wind  
Wind Speed 2 mph (NW)    
Max Wind Speed 20 mph    
Max Gust Speed 23 mph    
Visibility 9 miles    
Events Rain    
T = Trace of Precipitation, MM = Missing Value Source: NWS Daily Summary

Daily Weather History Graph

Daily Weather History Graph

Search for Another Location

Airport or City:

Trip Planner

Search our weather history database for the weather conditions in past years. The results will help you decide how hot, cold, wet, or windy it might be!

Date:

Astronomy

Jun. 12, 2013 Rise Set
Actual Time 5:20 AM PDT 9:00 PM PDT
Civil Twilight 4:42 AM PDT 9:38 PM PDT
Nautical Twilight 3:52 AM PDT 10:28 PM PDT
Astronomical Twilight 2:44 AM PDT 11:37 PM PDT
Moon 9:14 AM PDT (6/12) 11:27 PM PDT (6/12)
Length of Visible Light 16h 55m
Length of Day
15h 39m
Waxing Crescent, 15% of the Moon is Illuminated
Jun 12
Waxing Crescent
Jun 16
First Quarter
Jun 23
Full
Jun 29
Last Quarter
Jul 8
New

Hourly Weather History & Observations

Time (PDT) Temp. Dew Point Humidity Pressure Visibility Wind Dir Wind Speed Gust Speed Precip Events Conditions
12:53 AM 55.9 °F 46.0 °F 69% 30.16 in 10.0 mi North 4.6 mph - N/A   Mostly Cloudy
1:53 AM 54.0 °F 46.0 °F 75% 30.15 in 10.0 mi NNW 3.5 mph - N/A   Mostly Cloudy
2:53 AM 54.0 °F 46.0 °F 75% 30.15 in 10.0 mi Calm Calm - N/A   Mostly Cloudy
3:53 AM 54.0 °F 46.9 °F 77% 30.15 in 10.0 mi NW 3.5 mph - N/A   Overcast
4:53 AM 54.0 °F 46.9 °F 77% 30.16 in 10.0 mi Calm Calm - N/A   Overcast
5:53 AM 55.0 °F 46.9 °F 74% 30.16 in 10.0 mi Calm Calm - N/A   Overcast
6:53 AM 55.0 °F 46.9 °F 74% 30.16 in 10.0 mi Calm Calm - N/A   Overcast
7:53 AM 55.9 °F 46.9 °F 72% 30.16 in 10.0 mi Calm Calm - N/A   Overcast
8:53 AM 57.0 °F 46.9 °F 69% 30.17 in 10.0 mi Calm Calm - N/A   Overcast
9:53 AM 57.0 °F 46.9 °F 69% 30.17 in 10.0 mi NE 3.5 mph - N/A   Overcast
10:53 AM 59.0 °F 46.9 °F 64% 30.17 in 10.0 mi East 3.5 mph - 0.00 in   Overcast
11:53 AM 59.0 °F 46.9 °F 64% 30.17 in 10.0 mi Calm Calm - N/A   Overcast
12:53 PM 61.0 °F 46.0 °F 58% 30.16 in 10.0 mi Calm Calm - N/A   Mostly Cloudy
1:53 PM 60.1 °F 50.0 °F 69% 30.16 in 10.0 mi Calm Calm - 0.00 in   Mostly Cloudy
2:53 PM 62.1 °F 46.9 °F 58% 30.17 in 10.0 mi SW 9.2 mph - N/A   Mostly Cloudy
3:53 PM 63.0 °F 48.0 °F 58% 30.16 in 10.0 mi SSE 5.8 mph - 0.00 in   Mostly Cloudy
4:23 PM 57.2 °F 51.8 °F 82% 30.18 in 4.0 mi West 13.8 mph - 0.03 in Rain Rain
4:53 PM 57.9 °F 50.0 °F 75% 30.17 in 10.0 mi NNW 5.8 mph - 0.06 in Rain Light Rain
5:53 PM 55.9 °F 53.1 °F 90% 30.17 in 4.0 mi SW 6.9 mph - 0.03 in Rain Rain
6:53 PM 55.9 °F 53.1 °F 90% 30.17 in 6.0 mi NNW 3.5 mph - 0.11 in Rain Light Rain
7:53 PM 55.9 °F 51.1 °F 84% 30.17 in 10.0 mi Calm Calm - 0.01 in   Mostly Cloudy
8:53 PM 55.9 °F 52.0 °F 87% 30.17 in 10.0 mi Calm Calm - N/A   Mostly Cloudy
9:53 PM 55.9 °F 54.0 °F 93% 30.19 in 10.0 mi Calm Calm - N/A   Mostly Cloudy
10:53 PM 55.9 °F 52.0 °F 87% 30.19 in 10.0 mi Calm Calm - N/A   Overcast
11:53 PM 55.0 °F 52.0 °F 89% 30.18 in 10.0 mi Calm Calm - N/A   Overcast